ASA31 PAFA-PAJN

Flight info

Callsign ASA31
Flight time 1h 28m
Altitude 33000
Route RDFLG J502 ORT Q902 IGSOM WOGUS Q902 SSR
Aircraft B738/M-SDE2E3FGHIRWXY/LB1

Departure

Time 2026-05-09 01:30
Airport Fairbanks International Airport (PAFA)

Arrival

Time 2026-05-09 02:58
Airport Juneau International Airport (PAJN)
Time Latitude Longitude Altitude Speed Heading
2026-05-09 01:17 64.81706 -147.86586 433 ft 0 kts 348°
2026-05-09 01:20 64.81703 -147.86584 422 ft 3 kts 346°
2026-05-09 01:20 64.81686 -147.86567 427 ft 3 kts 340°
2026-05-09 01:20 64.81660 -147.86553 422 ft 4 kts
2026-05-09 01:20 64.81635 -147.86569 419 ft 4 kts 34°
2026-05-09 01:21 64.81625 -147.86587 420 ft 1 kts 39°
2026-05-09 01:21 64.81624 -147.86588 421 ft 0 kts 39°
2026-05-09 01:23 64.81628 -147.86580 419 ft 2 kts 45°
2026-05-09 01:23 64.81647 -147.86512 425 ft 7 kts 56°
2026-05-09 01:23 64.81674 -147.86418 432 ft 7 kts 56°
2026-05-09 01:24 64.81701 -147.86324 432 ft 7 kts 56°
2026-05-09 01:24 64.81728 -147.86235 424 ft 7 kts 50°
2026-05-09 01:24 64.81763 -147.86160 432 ft 7 kts 39°
2026-05-09 01:24 64.81801 -147.86089 419 ft 7 kts 38°
2026-05-09 01:25 64.81838 -147.86020 434 ft 7 kts 38°
2026-05-09 01:25 64.81875 -147.85951 430 ft 7 kts 38°
2026-05-09 01:25 64.81919 -147.85872 429 ft 9 kts 38°
2026-05-09 01:25 64.81972 -147.85777 423 ft 10 kts 38°
2026-05-09 01:26 64.82034 -147.85663 431 ft 12 kts 38°
2026-05-09 01:26 64.82103 -147.85537 431 ft 13 kts 38°
2026-05-09 01:26 64.82172 -147.85411 424 ft 12 kts 38°
2026-05-09 01:26 64.82239 -147.85289 434 ft 12 kts 38°
2026-05-09 01:27 64.82306 -147.85166 427 ft 13 kts 39°
2026-05-09 01:27 64.82378 -147.85031 429 ft 14 kts 39°
2026-05-09 01:27 64.82453 -147.84888 432 ft 14 kts 39°
2026-05-09 01:27 64.82534 -147.84735 429 ft 15 kts 39°
2026-05-09 01:28 64.82620 -147.84577 431 ft 16 kts 38°
2026-05-09 01:28 64.82709 -147.84422 428 ft 16 kts 37°
2026-05-09 01:28 64.82795 -147.84271 422 ft 15 kts 38°
2026-05-09 01:28 64.82835 -147.84068 431 ft 14 kts 109°
2026-05-09 01:29 64.82756 -147.84012 429 ft 14 kts 213°
2026-05-09 01:29 64.82706 -147.84102 431 ft 13 kts 218°
2026-05-09 01:29 64.82625 -147.84250 426 ft 19 kts 218°
2026-05-09 01:29 64.82445 -147.84579 437 ft 62 kts 218°
2026-05-09 01:30 64.81925 -147.85538 429 ft 126 kts 218°
2026-05-09 01:30 64.81097 -147.87080 489 ft 172 kts 218°
2026-05-09 01:30 64.80144 -147.88867 1186 ft 174 kts 219°
2026-05-09 01:30 64.79169 -147.90658 1855 ft 181 kts 219°
2026-05-09 01:31 64.78156 -147.92509 2475 ft 193 kts 217°
2026-05-09 01:31 64.77052 -147.94631 2815 ft 218 kts 218°
2026-05-09 01:31 64.75809 -147.97031 3032 ft 244 kts 218°
2026-05-09 01:31 64.74428 -147.99666 3396 ft 266 kts 214°
2026-05-09 01:32 64.72737 -148.01270 4279 ft 263 kts 186°
2026-05-09 01:32 64.70948 -148.00818 5124 ft 261 kts 157°
2026-05-09 01:32 64.69455 -147.98479 5925 ft 261 kts 133°
2026-05-09 01:32 64.68403 -147.95011 6715 ft 264 kts 120°
2026-05-09 01:33 64.67489 -147.91251 7502 ft 267 kts 120°
2026-05-09 01:33 64.66580 -147.87450 8300 ft 269 kts 120°
2026-05-09 01:33 64.65664 -147.83623 9037 ft 271 kts 120°
2026-05-09 01:33 64.64738 -147.79769 9777 ft 274 kts 120°
2026-05-09 01:34 64.63795 -147.75867 10358 ft 281 kts 121°
2026-05-09 01:34 64.62792 -147.71742 10537 ft 303 kts 121°
2026-05-09 01:34 64.61711 -147.67327 10695 ft 324 kts 121°
2026-05-09 01:34 64.60558 -147.62633 10871 ft 343 kts 121°
2026-05-09 01:35 64.59342 -147.57694 11110 ft 358 kts 121°
2026-05-09 01:35 64.58091 -147.52620 11651 ft 364 kts 122°
2026-05-09 01:35 64.56823 -147.47495 12305 ft 367 kts 122°
2026-05-09 01:35 64.55544 -147.42340 12960 ft 370 kts 122°
2026-05-09 01:36 64.54246 -147.37120 13602 ft 374 kts 122°
2026-05-09 01:36 64.52932 -147.31857 14210 ft 378 kts 123°
2026-05-09 01:36 64.51608 -147.26564 14859 ft 381 kts 123°
2026-05-09 01:36 64.50269 -147.21228 15504 ft 384 kts 124°
2026-05-09 01:37 64.48914 -147.15843 16116 ft 388 kts 124°
2026-05-09 01:37 64.47548 -147.10425 16720 ft 391 kts 124°
2026-05-09 01:37 64.46164 -147.04954 17321 ft 395 kts 125°
2026-05-09 01:37 64.44766 -146.99438 17855 ft 399 kts 126°
2026-05-09 01:38 64.43351 -146.93871 18354 ft 403 kts 126°
2026-05-09 01:38 64.41939 -146.88326 18858 ft 406 kts 126°
2026-05-09 01:38 64.40495 -146.82674 19360 ft 410 kts 126°
2026-05-09 01:38 64.39040 -146.76986 19848 ft 413 kts 127°
2026-05-09 01:39 64.37569 -146.71255 20345 ft 416 kts 127°
2026-05-09 01:39 64.36066 -146.65416 20839 ft 419 kts 128°
2026-05-09 01:39 64.34589 -146.59689 21300 ft 422 kts 128°
2026-05-09 01:39 64.33057 -146.53768 21753 ft 426 kts 128°
2026-05-09 01:40 64.31549 -146.47956 22211 ft 429 kts 128°
2026-05-09 01:40 64.30009 -146.42034 22683 ft 432 kts 129°
2026-05-09 01:40 64.28457 -146.36082 23092 ft 435 kts 129°
2026-05-09 01:40 64.26890 -146.30087 23418 ft 439 kts 129°
2026-05-09 01:41 64.25309 -146.24054 23766 ft 442 kts 129°
2026-05-09 01:41 64.23718 -146.17999 24132 ft 443 kts 129°
2026-05-09 01:41 64.22117 -146.11919 24481 ft 445 kts 129°
2026-05-09 01:41 64.20506 -146.05822 24817 ft 448 kts 129°
2026-05-09 01:42 64.18885 -145.99704 25143 ft 450 kts 129°
2026-05-09 01:42 64.17252 -145.93557 25460 ft 452 kts 129°
2026-05-09 01:42 64.15612 -145.87401 25780 ft 454 kts 129°
2026-05-09 01:42 64.13959 -145.81214 26089 ft 456 kts 129°
2026-05-09 01:43 64.12294 -145.75003 26391 ft 458 kts 129°
2026-05-09 01:43 64.10621 -145.68777 26678 ft 460 kts 129°
2026-05-09 01:43 64.08939 -145.62530 26982 ft 462 kts 129°
2026-05-09 01:43 64.07252 -145.56285 27385 ft 461 kts 129°
2026-05-09 01:44 64.05573 -145.50078 27858 ft 459 kts 130°
2026-05-09 01:44 64.03897 -145.43897 28308 ft 457 kts 130°
2026-05-09 01:44 64.02218 -145.37733 28711 ft 457 kts 130°
2026-05-09 01:44 64.00539 -145.31586 29101 ft 456 kts 130°
2026-05-09 01:45 63.98859 -145.25457 29517 ft 456 kts 130°
2026-05-09 01:45 63.97181 -145.19348 29903 ft 455 kts 130°
2026-05-09 01:45 63.95501 -145.13250 30202 ft 455 kts 130°
2026-05-09 01:45 63.93818 -145.07161 30417 ft 455 kts 130°
2026-05-09 01:46 63.92128 -145.01063 30714 ft 455 kts 130°
2026-05-09 01:46 63.90441 -144.94988 31028 ft 455 kts 130°
2026-05-09 01:46 63.88749 -144.88911 31323 ft 455 kts 130°
2026-05-09 01:46 63.87053 -144.82839 31605 ft 455 kts 130°
2026-05-09 01:47 63.85359 -144.76789 31902 ft 455 kts 130°
2026-05-09 01:47 63.83661 -144.70738 32198 ft 455 kts 130°
2026-05-09 01:47 63.81960 -144.64696 32501 ft 455 kts 130°
2026-05-09 01:47 63.80255 -144.58656 32698 ft 457 kts 130°
2026-05-09 01:48 63.76805 -144.46491 32675 ft 459 kts 130°
2026-05-09 01:48 63.73389 -144.34478 32666 ft 451 kts 130°
2026-05-09 01:49 63.69974 -144.22561 32661 ft 453 kts 130°
2026-05-09 01:49 63.66537 -144.10634 32664 ft 455 kts 130°
2026-05-09 01:50 63.63080 -143.98687 32656 ft 456 kts 130°
2026-05-09 01:50 63.59608 -143.86743 32657 ft 456 kts 130°
2026-05-09 01:51 63.56031 -143.75039 32664 ft 453 kts 132°
2026-05-09 01:51 63.52320 -143.63642 32650 ft 452 kts 132°
2026-05-09 01:52 63.48619 -143.52314 32674 ft 450 kts 132°
2026-05-09 01:52 63.44933 -143.40985 32656 ft 450 kts 132°
2026-05-09 01:53 63.41257 -143.29689 32653 ft 449 kts 132°
2026-05-09 01:53 63.37583 -143.18451 32617 ft 448 kts 131°
2026-05-09 01:54 63.33912 -143.07280 32637 ft 447 kts 131°
2026-05-09 01:54 63.30236 -142.96156 32649 ft 446 kts 131°
2026-05-09 01:55 63.26547 -142.85047 32677 ft 446 kts 131°
2026-05-09 01:55 63.22849 -142.73962 32673 ft 447 kts 132°
2026-05-09 01:56 63.19145 -142.62916 32648 ft 447 kts 131°
2026-05-09 01:56 63.15428 -142.51881 32671 ft 448 kts 131°
2026-05-09 01:57 63.11695 -142.40854 32669 ft 448 kts 131°
2026-05-09 01:57 63.07946 -142.29833 32657 ft 449 kts 131°
2026-05-09 01:58 63.04183 -142.18822 32654 ft 450 kts 131°
2026-05-09 01:58 63.00408 -142.07828 32651 ft 450 kts 131°
2026-05-09 01:59 62.96629 -141.96872 32642 ft 449 kts 131°
2026-05-09 01:59 62.92515 -141.86709 32654 ft 442 kts 142°
2026-05-09 02:00 62.87895 -141.77848 32650 ft 441 kts 143°
2026-05-09 02:00 62.83279 -141.69010 32643 ft 440 kts 142°
2026-05-09 02:01 62.78687 -141.60159 32654 ft 440 kts 142°
2026-05-09 02:01 62.74104 -141.51322 32677 ft 439 kts 142°
2026-05-09 02:02 62.69528 -141.42531 32677 ft 438 kts 142°
2026-05-09 02:02 62.64951 -141.33782 32680 ft 438 kts 142°
2026-05-09 02:03 62.60373 -141.25067 32680 ft 437 kts 142°
2026-05-09 02:03 62.55788 -141.16376 32673 ft 438 kts 142°
2026-05-09 02:04 62.51199 -141.07710 32649 ft 437 kts 142°
2026-05-09 02:04 62.46609 -140.99083 32675 ft 437 kts 142°
2026-05-09 02:05 62.42007 -140.90499 32679 ft 437 kts 142°
2026-05-09 02:05 62.37396 -140.81941 32683 ft 437 kts 142°
2026-05-09 02:06 62.32781 -140.73405 32679 ft 438 kts 142°
2026-05-09 02:07 62.25840 -140.60628 32658 ft 438 kts 142°
2026-05-09 02:07 62.21206 -140.52155 32682 ft 438 kts 142°
2026-05-09 02:08 62.16568 -140.43706 32679 ft 438 kts 142°
2026-05-09 02:08 62.11927 -140.35261 32671 ft 438 kts 142°
2026-05-09 02:09 62.07280 -140.26849 32673 ft 438 kts 142°
2026-05-09 02:09 62.02631 -140.18475 32675 ft 437 kts 142°
2026-05-09 02:10 61.97974 -140.10124 32669 ft 438 kts 142°
2026-05-09 02:10 61.93306 -140.01786 32662 ft 438 kts 142°
2026-05-09 02:11 61.89426 -139.94881 32673 ft 438 kts 142°
2026-05-09 02:11 61.84724 -139.86545 32672 ft 438 kts 142°
2026-05-09 02:12 61.80078 -139.78344 32671 ft 438 kts 142°
2026-05-09 02:12 61.75370 -139.70063 32660 ft 437 kts 142°
2026-05-09 02:13 61.70691 -139.61869 32673 ft 437 kts 142°
2026-05-09 02:13 61.66041 -139.53763 32666 ft 437 kts 142°
2026-05-09 02:14 61.61328 -139.45577 32663 ft 436 kts 142°
2026-05-09 02:14 61.56670 -139.37518 32641 ft 436 kts 142°
2026-05-09 02:15 61.51988 -139.29449 32618 ft 435 kts 142°
2026-05-09 02:15 61.47309 -139.21418 32612 ft 435 kts 142°
2026-05-09 02:16 61.42622 -139.13403 32599 ft 435 kts 142°
2026-05-09 02:16 61.37932 -139.05418 32603 ft 435 kts 143°
2026-05-09 02:17 61.32984 -138.98221 32607 ft 434 kts 149°
2026-05-09 02:17 61.27860 -138.91591 32583 ft 434 kts 150°
2026-05-09 02:18 61.22737 -138.84989 32648 ft 433 kts 149°
2026-05-09 02:18 61.17629 -138.78339 32665 ft 433 kts 149°
2026-05-09 02:19 61.12490 -138.71615 32737 ft 434 kts 149°
2026-05-09 02:19 61.07414 -138.64995 32730 ft 435 kts 149°
2026-05-09 02:20 61.02286 -138.58342 32744 ft 436 kts 149°
2026-05-09 02:20 60.97151 -138.51705 32727 ft 436 kts 149°
2026-05-09 02:21 60.92016 -138.45096 32748 ft 435 kts 149°
2026-05-09 02:21 60.86894 -138.38525 32756 ft 434 kts 149°
2026-05-09 02:22 60.81764 -138.31971 32781 ft 434 kts 149°
2026-05-09 02:22 60.76631 -138.25440 32769 ft 434 kts 149°
2026-05-09 02:23 60.71504 -138.18940 32781 ft 433 kts 150°
2026-05-09 02:23 60.66345 -138.12424 32791 ft 433 kts 150°
2026-05-09 02:24 60.61256 -138.06022 32809 ft 433 kts 150°
2026-05-09 02:24 60.56131 -137.99597 32809 ft 433 kts 150°
2026-05-09 02:25 60.51007 -137.93196 32813 ft 432 kts 150°
2026-05-09 02:25 60.45881 -137.86825 32816 ft 432 kts 150°
2026-05-09 02:26 60.40753 -137.80470 32816 ft 432 kts 150°
2026-05-09 02:26 60.35629 -137.74160 32808 ft 431 kts 150°
2026-05-09 02:27 60.30519 -137.67865 32830 ft 430 kts 150°
2026-05-09 02:27 60.25401 -137.61581 32830 ft 430 kts 150°
2026-05-09 02:28 60.20285 -137.55333 32825 ft 430 kts 150°
2026-05-09 02:28 60.15181 -137.49123 32811 ft 429 kts 150°
2026-05-09 02:29 60.10085 -137.42946 32818 ft 428 kts 150°
2026-05-09 02:29 60.04992 -137.36814 32805 ft 427 kts 150°
2026-05-09 02:30 59.99914 -137.30693 32816 ft 426 kts 150°
2026-05-09 02:30 59.94834 -137.24595 32825 ft 426 kts 150°
2026-05-09 02:31 59.89752 -137.18521 32819 ft 426 kts 150°
2026-05-09 02:31 59.84667 -137.12470 32816 ft 426 kts 150°
2026-05-09 02:32 59.79582 -137.06438 32839 ft 425 kts 150°
2026-05-09 02:32 59.74499 -137.00431 32840 ft 425 kts 150°
2026-05-09 02:33 59.69399 -136.94438 32834 ft 426 kts 150°
2026-05-09 02:33 59.64296 -136.88457 32810 ft 427 kts 151°
2026-05-09 02:34 59.59225 -136.82264 32176 ft 432 kts 151°
2026-05-09 02:34 59.56635 -136.79317 31545 ft 429 kts 151°
2026-05-09 02:34 59.54037 -136.76371 30834 ft 430 kts 151°
2026-05-09 02:34 59.51448 -136.73420 30112 ft 431 kts 151°
2026-05-09 02:35 59.48851 -136.70437 29262 ft 432 kts 150°
2026-05-09 02:35 59.46262 -136.67447 28498 ft 430 kts 150°
2026-05-09 02:35 59.43705 -136.64492 27970 ft 424 kts 150°
2026-05-09 02:35 59.41178 -136.61572 27421 ft 418 kts 150°
2026-05-09 02:36 59.38684 -136.58697 26843 ft 414 kts 150°
2026-05-09 02:36 59.36217 -136.55851 26331 ft 408 kts 150°
2026-05-09 02:36 59.33797 -136.52975 25788 ft 405 kts 150°
2026-05-09 02:36 59.31371 -136.50221 25253 ft 401 kts 151°
2026-05-09 02:37 59.28966 -136.47500 24719 ft 398 kts 148°
2026-05-09 02:37 59.26763 -136.44235 24200 ft 397 kts 140°
2026-05-09 02:37 59.24722 -136.40643 23693 ft 394 kts 140°
2026-05-09 02:37 59.22698 -136.37069 23134 ft 391 kts 140°
2026-05-09 02:38 59.20684 -136.33523 22554 ft 388 kts 140°
2026-05-09 02:38 59.18686 -136.30033 22021 ft 385 kts 140°
2026-05-09 02:38 59.16702 -136.26576 21509 ft 381 kts 141°
2026-05-09 02:38 59.14733 -136.23153 21004 ft 378 kts 141°
2026-05-09 02:39 59.12775 -136.19768 20474 ft 375 kts 141°
2026-05-09 02:39 59.10833 -136.16405 19973 ft 373 kts 141°
2026-05-09 02:39 59.08897 -136.13089 19484 ft 370 kts 142°
2026-05-09 02:39 59.06970 -136.09792 18997 ft 368 kts 142°
2026-05-09 02:40 59.05059 -136.06509 18495 ft 366 kts 142°
2026-05-09 02:40 59.03150 -136.03243 18024 ft 364 kts 143°
2026-05-09 02:40 59.01232 -136.00048 17437 ft 362 kts 143°
2026-05-09 02:40 58.99365 -135.96811 16956 ft 359 kts 140°
2026-05-09 02:41 58.97545 -135.93526 16472 ft 357 kts 140°
2026-05-09 02:41 58.95744 -135.90206 15978 ft 355 kts 142°
2026-05-09 02:41 58.93859 -135.87191 15635 ft 348 kts 144°
2026-05-09 02:41 58.92035 -135.84228 15196 ft 346 kts 143°
2026-05-09 02:42 58.90218 -135.81196 14709 ft 345 kts 142°
2026-05-09 02:42 58.88415 -135.78152 14248 ft 343 kts 142°
2026-05-09 02:42 58.86599 -135.75083 13793 ft 342 kts 142°
2026-05-09 02:42 58.84808 -135.72063 13293 ft 341 kts 142°
2026-05-09 02:43 58.83028 -135.69050 12802 ft 339 kts 142°
2026-05-09 02:43 58.81255 -135.66066 12333 ft 337 kts 142°
2026-05-09 02:43 58.79494 -135.63123 11895 ft 334 kts 142°
2026-05-09 02:43 58.77748 -135.60174 11417 ft 332 kts 142°
2026-05-09 02:44 58.76020 -135.57271 10995 ft 327 kts 143°
2026-05-09 02:44 58.74374 -135.54386 10910 ft 314 kts 142°
2026-05-09 02:44 58.72763 -135.51671 10741 ft 302 kts 142°
2026-05-09 02:44 58.71227 -135.49014 10614 ft 292 kts 145°
2026-05-09 02:45 58.69657 -135.46675 10491 ft 280 kts 146°
2026-05-09 02:45 58.68192 -135.44287 10361 ft 272 kts 142°
2026-05-09 02:45 58.66803 -135.41927 10290 ft 260 kts 142°
2026-05-09 02:45 58.65470 -135.39648 10154 ft 253 kts 143°
2026-05-09 02:46 58.64184 -135.37497 10104 ft 244 kts 143°
2026-05-09 02:46 58.62895 -135.35351 9877 ft 240 kts 143°
2026-05-09 02:46 58.61749 -135.33025 9604 ft 247 kts 123°
2026-05-09 02:46 58.61154 -135.29964 9396 ft 251 kts 109°
2026-05-09 02:47 58.60833 -135.26654 9118 ft 253 kts 105°
2026-05-09 02:47 58.60555 -135.23336 8855 ft 251 kts 107°
2026-05-09 02:47 58.60268 -135.20042 8598 ft 249 kts 107°
2026-05-09 02:47 58.59969 -135.16782 8352 ft 248 kts 108°
2026-05-09 02:48 58.59665 -135.13541 8098 ft 247 kts 108°
2026-05-09 02:48 58.59357 -135.10308 7855 ft 246 kts 108°
2026-05-09 02:48 58.58754 -135.07344 7568 ft 234 kts 133°
2026-05-09 02:48 58.57539 -135.05420 7354 ft 226 kts 153°
2026-05-09 02:49 58.56057 -135.04434 7120 ft 229 kts 171°
2026-05-09 02:49 58.54465 -135.04113 6866 ft 232 kts 173°
2026-05-09 02:49 58.52849 -135.03846 6601 ft 233 kts 173°
2026-05-09 02:49 58.51238 -135.03582 6349 ft 232 kts 172°
2026-05-09 02:50 58.49637 -135.03316 6086 ft 230 kts 171°
2026-05-09 02:50 58.48059 -135.03045 5791 ft 224 kts 172°
2026-05-09 02:50 58.46565 -135.02790 5672 ft 206 kts 172°
2026-05-09 02:50 58.45197 -135.02555 5516 ft 189 kts 171°
2026-05-09 02:51 58.43928 -135.02335 5404 ft 177 kts 171°
2026-05-09 02:51 58.42693 -135.02117 5070 ft 176 kts 171°
2026-05-09 02:51 58.41492 -135.01906 4821 ft 170 kts 171°
2026-05-09 02:51 58.40343 -135.01706 4630 ft 162 kts 171°
2026-05-09 02:52 58.39239 -135.01513 4437 ft 156 kts 171°
2026-05-09 02:52 58.38161 -135.01324 4279 ft 156 kts 170°
2026-05-09 02:52 58.37077 -135.01105 4113 ft 157 kts 164°
2026-05-09 02:52 58.36175 -135.00076 3955 ft 150 kts 132°
2026-05-09 02:53 58.35746 -134.98291 3775 ft 154 kts 100°
2026-05-09 02:53 58.35737 -134.96246 3635 ft 154 kts 97°
2026-05-09 02:53 58.35729 -134.94199 3472 ft 155 kts 96°
2026-05-09 02:53 58.35726 -134.92808 3342 ft 156 kts 96°
2026-05-09 02:54 58.35727 -134.90745 3177 ft 155 kts 96°
2026-05-09 02:54 58.35730 -134.88695 2991 ft 154 kts 95°
2026-05-09 02:54 58.35734 -134.86675 2873 ft 150 kts 95°
2026-05-09 02:54 58.35739 -134.84713 2692 ft 146 kts 94°
2026-05-09 02:55 58.35743 -134.82773 2502 ft 147 kts 94°
2026-05-09 02:55 58.35748 -134.80821 2297 ft 148 kts 93°
2026-05-09 02:55 58.35754 -134.78867 2096 ft 148 kts 92°
2026-05-09 02:55 58.35800 -134.76907 1894 ft 148 kts 90°
2026-05-09 02:56 58.35811 -134.74953 1685 ft 147 kts 91°
2026-05-09 02:56 58.35804 -134.73002 1491 ft 148 kts 91°
2026-05-09 02:56 58.35791 -134.71038 1266 ft 150 kts 91°
2026-05-09 02:56 58.35775 -134.69033 991 ft 153 kts 91°
2026-05-09 02:57 58.35812 -134.66996 766 ft 152 kts 89°
2026-05-09 02:57 58.35876 -134.65032 588 ft 150 kts 88°
2026-05-09 02:57 58.35922 -134.63026 381 ft 151 kts 88°
2026-05-09 02:57 58.35931 -134.61014 152 ft 151 kts 96°
2026-05-09 02:58 58.35709 -134.59092 35 ft 143 kts 105°
2026-05-09 02:58 58.35496 -134.57661 35 ft 81 kts 106°
2026-05-09 02:58 58.35405 -134.57036 34 ft 18 kts 101°
2026-05-09 02:58 58.35400 -134.56989 34 ft 6 kts 101°
2026-05-09 02:59 58.35385 -134.56861 32 ft 12 kts 103°
2026-05-09 02:59 58.35388 -134.56704 33 ft 12 kts 51°
2026-05-09 02:59 58.35462 -134.56687 32 ft 11 kts 326°
2026-05-09 02:59 58.35496 -134.56818 33 ft 11 kts 286°
2026-05-09 03:00 58.35514 -134.56957 33 ft 11 kts 284°
2026-05-09 03:00 58.35532 -134.57092 32 ft 10 kts 284°
2026-05-09 03:00 58.35550 -134.57222 33 ft 10 kts 284°
2026-05-09 03:00 58.35567 -134.57349 33 ft 10 kts 284°
2026-05-09 03:01 58.35583 -134.57473 34 ft 10 kts 284°
2026-05-09 03:01 58.35599 -134.57594 33 ft 9 kts 284°
2026-05-09 03:01 58.35616 -134.57711 33 ft 9 kts 285°
2026-05-09 03:01 58.35632 -134.57825 32 ft 9 kts 285°
2026-05-09 03:02 58.35648 -134.57936 32 ft 9 kts 285°
2026-05-09 03:02 58.35664 -134.58043 33 ft 8 kts 285°
2026-05-09 03:02 58.35679 -134.58147 32 ft 8 kts 285°
2026-05-09 03:02 58.35694 -134.58248 33 ft 8 kts 285°
2026-05-09 03:03 58.35707 -134.58346 33 ft 8 kts 284°
2026-05-09 03:03 58.35720 -134.58441 32 ft 7 kts 284°
2026-05-09 03:03 58.35733 -134.58533 32 ft 7 kts 289°
2026-05-09 03:03 58.35763 -134.58597 33 ft 7 kts 348°
2026-05-09 03:04 58.35796 -134.58542 32 ft 7 kts 57°
2026-05-09 03:04 58.35825 -134.58476 33 ft 6 kts 47°
2026-05-09 03:04 58.35836 -134.58454 33 ft 1 kts 49°
2026-05-09 03:04 58.35840 -134.58444 32 ft 1 kts 49°
2026-05-09 03:05 58.35845 -134.58434 32 ft 0 kts 49°
2026-05-09 03:05 58.35845 -134.58433 32 ft 0 kts 49°